Date String (YYYY-MM-DD hh:mm:ss) UTC,Instrument flags,Ambient pressure (hPa),Sample flow (lpm),Bypass flow (lpm),Sample temperature (°C),Ambient temperature (°C),ASC tube jacket temperature (°C),LED temperature (°C),Box temperature (°C),Sample RH (%),Span deviation,Mass concentration (μg/m³),Mass concentration (μg/m³),Mass concentration (μg/m³)
DateTimeUTC,F1_M11,P_M11,Q1_M11,Q2_M11,T1_M11,T2_M11,T3_M11,T4_M11,T5_M11,U1_M11,ZSPAN_M11,X0_M11,X2_M11,X1_M11
2021-11-06 19:00:00,,0825.7,4.99,0.00,30.9,30.1,00.0,39.8,32.6,07.5,0000.0,0009.57,0002.61,0001.54
2021-11-06 19:01:00,,0825.6,5.00,0.00,30.9,30.2,00.0,39.8,32.6,07.4,0000.0,0009.69,0002.55,0001.53
2021-11-06 19:02:00,,0825.6,5.00,0.00,30.9,30.2,00.0,39.8,32.6,07.4,0000.0,0009.77,0002.50,0001.51
2021-11-06 19:03:00,,0825.6,5.01,0.00,30.9,30.2,00.0,39.8,32.7,07.5,0000.0,0009.79,0002.49,0001.49
2021-11-06 19:04:00,,0825.6,5.00,0.00,31.0,30.2,00.0,39.8,32.7,07.4,0000.0,0010.58,0002.53,0001.49
2021-11-06 19:05:00,,0825.6,5.00,0.00,31.0,30.2,00.0,39.9,32.7,07.4,0000.0,0009.79,0002.53,0001.47
2021-11-06 19:06:00,,0825.6,5.00,0.00,31.0,30.3,00.0,39.9,32.7,07.4,0000.0,0009.27,0002.58,0001.46
2021-11-06 19:07:00,,0825.6,5.00,0.00,31.0,30.3,00.0,39.9,32.8,07.5,0000.0,0009.44,0002.62,0001.47
2021-11-06 19:08:00,,0825.6,4.99,0.00,31.0,30.3,00.0,39.9,32.8,07.5,0000.0,0009.10,0002.63,0001.47
2021-11-06 19:09:00,,0825.7,5.00,0.00,31.1,30.3,00.0,39.9,32.8,07.4,0000.0,0008.95,0002.63,0001.49
2021-11-06 19:10:00,,0825.6,5.00,0.00,31.1,30.3,00.0,40.0,32.8,07.6,0000.0,0009.15,0002.63,0001.52
2021-11-06 19:11:00,,0825.7,5.01,0.00,31.1,30.4,00.0,40.0,32.8,07.4,0000.0,0009.15,0002.57,0001.53
2021-11-06 19:12:00,,0825.7,4.99,0.00,31.1,30.4,00.0,40.0,32.9,07.5,0000.0,0008.96,0002.58,0001.54
2021-11-06 19:13:00,,0825.7,5.01,0.00,31.1,30.4,00.0,40.0,32.9,07.6,0000.0,0009.41,0002.58,0001.54
2021-11-06 19:14:00,,0825.7,5.01,0.00,31.2,30.4,00.0,40.0,32.9,07.3,0000.0,0009.69,0002.70,0001.55
2021-11-06 19:15:00,,0825.7,5.00,0.00,31.2,30.4,00.0,40.1,32.9,07.0,0000.0,0008.97,0002.68,0001.56
2021-11-06 19:16:00,,0825.7,5.00,0.00,31.2,30.4,00.0,40.1,32.9,07.0,0000.0,0009.12,0002.68,0001.57
2021-11-06 19:17:00,,0825.7,5.00,0.00,31.2,30.4,00.0,40.1,33.0,07.1,0000.0,0010.33,0002.76,0001.58
2021-11-06 19:18:00,,0825.7,5.00,0.00,31.2,30.5,00.0,40.1,33.0,07.1,0000.0,0010.35,0002.76,0001.59
2021-11-06 19:19:00,,0825.7,5.00,0.00,31.2,30.5,00.0,40.1,33.0,06.8,0000.0,0010.71,0002.76,0001.60
2021-11-06 19:20:00,,0825.7,5.00,0.00,31.3,30.2,00.0,40.2,32.9,07.0,0000.0,0010.85,0002.74,0001.61
2021-11-06 19:21:00,,0825.7,5.00,0.00,31.2,28.2,00.0,40.2,32.6,07.2,0000.0,0011.28,0002.81,0001.62
2021-11-06 19:22:00,,0825.6,5.00,0.00,31.0,26.9,00.0,40.1,32.3,07.2,0000.0,0011.83,0002.96,0001.63
2021-11-06 19:23:00,,0825.6,5.00,0.00,30.9,27.1,00.0,40.1,32.2,07.3,0000.0,0013.18,0003.07,0001.64
2021-11-06 19:24:00,,0825.6,4.99,0.00,30.8,27.5,00.0,40.0,32.2,07.0,0000.0,0012.87,0003.10,0001.68
2021-11-06 19:25:00,,0825.6,5.00,0.00,30.7,27.9,00.0,39.9,32.1,06.5,0000.0,0012.58,0003.01,0001.67
2021-11-06 19:26:00,,0825.5,5.01,0.00,30.7,28.3,00.0,39.9,32.2,07.1,0000.0,0012.88,0003.05,0001.68
2021-11-06 19:27:00,,0825.5,4.99,0.00,30.7,28.7,00.0,39.9,32.3,07.3,0000.0,0013.11,0003.09,0001.72
2021-11-06 19:28:00,,0825.6,5.00,0.00,30.7,28.9,00.0,39.8,32.3,07.6,0000.0,0013.14,0003.11,0001.79
2021-11-06 19:29:00,,0825.6,5.00,0.00,30.7,29.1,00.0,39.8,32.3,07.5,0000.0,0013.92,0003.19,0001.85
2021-11-06 19:30:00,,0825.6,5.01,0.00,30.7,29.3,00.0,39.8,32.4,07.7,0000.0,0013.85,0003.26,0001.92
2021-11-06 19:31:00,,0825.5,5.00,0.00,30.7,29.5,00.0,39.8,32.4,07.3,0000.0,0013.59,0003.33,0001.97
2021-11-06 19:32:00,,0825.5,5.00,0.00,30.8,29.6,00.0,39.8,32.4,07.6,0000.0,0013.43,0003.37,0002.02
2021-11-06 19:33:00,,0825.5,5.01,0.00,30.8,29.7,00.0,39.8,32.5,08.3,0000.0,0013.11,0003.42,0002.13
2021-11-06 19:34:00,,0825.5,5.00,0.00,30.8,29.8,00.0,39.8,32.5,08.0,0000.0,0012.34,0003.45,0002.24
2021-11-06 19:35:00,,0825.6,5.00,0.00,30.8,29.8,00.0,39.8,32.5,08.0,0000.0,0012.64,0003.50,0002.31
2021-11-06 19:36:00,,0825.5,5.01,0.00,30.8,29.9,00.0,39.8,32.5,08.3,0000.0,0013.60,0003.62,0002.41
2021-11-06 19:37:00,,0825.5,5.01,0.00,30.9,29.9,00.0,39.8,32.6,08.0,0000.0,0014.45,0003.74,0002.51
2021-11-06 19:38:00,,0825.5,5.00,0.00,30.9,30.0,00.0,39.8,32.6,07.6,0000.0,0014.52,0003.82,0002.55
2021-11-06 19:39:00,,0825.5,4.99,0.00,30.9,30.0,00.0,39.8,32.6,06.9,0000.0,0013.56,0003.81,0002.55
2021-11-06 19:40:00,,0825.5,4.98,0.00,30.9,30.1,00.0,39.9,32.7,07.1,0000.0,0012.96,0003.81,0002.56
2021-11-06 19:41:00,,0825.5,5.01,0.00,31.0,30.1,00.0,39.9,32.7,06.7,0000.0,0012.79,0003.79,0002.54
2021-11-06 19:42:00,,0825.5,5.00,0.00,31.0,30.2,00.0,39.9,32.7,07.0,0000.0,0012.47,0003.76,0002.51
2021-11-06 19:43:00,,0825.5,5.00,0.00,31.0,30.2,00.0,39.9,32.7,06.8,0000.0,0012.71,0003.77,0002.49
2021-11-06 19:44:00,,0825.5,5.01,0.00,31.0,30.3,00.0,39.9,32.8,07.1,0000.0,0013.50,0003.72,0002.44
2021-11-06 19:45:00,,0825.5,5.00,0.00,31.0,30.3,00.0,40.0,32.8,07.2,0000.0,0013.19,0003.70,0002.39
2021-11-06 19:46:00,,0825.5,4.99,0.00,31.0,29.1,00.0,40.0,32.6,07.1,0000.0,0013.76,0003.72,0002.36
2021-11-06 19:47:00,,0825.5,5.01,0.00,30.9,26.9,00.0,39.9,32.2,06.9,0000.0,0013.12,0003.69,0002.31
2021-11-06 19:48:00,,0825.5,5.00,0.00,30.8,26.5,00.0,39.9,32.0,06.6,0000.0,0012.43,0003.59,0002.25
2021-11-06 19:49:00,,0825.4,5.00,0.00,30.7,26.9,00.0,39.8,32.0,06.5,0000.0,0011.28,0003.49,0002.20
2021-11-06 19:50:00,,0825.4,5.00,0.00,30.6,27.5,00.0,39.8,32.0,06.7,0000.0,0011.52,0003.46,0002.17
2021-11-06 19:51:00,,0825.4,5.00,0.00,30.6,27.9,00.0,39.7,32.0,06.7,0000.0,0011.41,0003.41,0002.14
2021-11-06 19:52:00,,0825.4,4.99,0.00,30.5,28.3,00.0,39.7,32.1,05.7,0000.0,0011.44,0003.41,0002.10
2021-11-06 19:53:00,,0825.3,5.00,0.00,30.6,28.7,00.0,39.7,32.1,05.3,0000.0,0012.44,0003.32,0002.03
2021-11-06 19:54:00,,0825.4,5.01,0.00,30.6,29.0,00.0,39.6,32.2,05.7,0000.0,0013.07,0003.22,0001.97
2021-11-06 19:55:00,,0825.4,5.00,0.00,30.6,29.2,00.0,39.6,32.3,05.9,0000.0,0012.90,0003.22,0001.94
2021-11-06 19:56:00,,0825.4,5.00,0.00,30.6,29.4,00.0,39.6,32.3,05.5,0000.0,0012.49,0003.14,0001.85
2021-11-06 19:57:00,,0825.4,4.99,0.00,30.6,29.5,00.0,39.7,32.4,04.6,0000.0,0011.77,0002.96,0001.76
2021-11-06 19:58:00,,0825.4,5.00,0.00,30.7,29.6,00.0,39.7,32.4,05.9,0000.0,0011.58,0002.78,0001.69
2021-11-06 19:59:00,,0825.3,4.99,0.00,30.7,29.7,00.0,39.7,32.5,06.9,0000.0,0011.63,0002.77,0001.68
